Regional Weather Roundup
Issued by NWS

Home | Current Version | Previous Version | Graphics & Text | Print | Product List | Glossary On
Versions: 1 2 3 4 5 6 7 8 9 10 11 12 13 14 15 16 17 18 19 20 21 22 23 24 25 26 27 28 29 30 31 32 33 34 35 36 37 38 39 40 41 42 43 44 45 46 47 48 49
815
ASUS45 KCYS 130910
RWRWY

WYOMING REGIONAL WEATHER ROUNDUP
NATIONAL WEATHER SERVICE CHEYENNE WY
200 AM MST SAT FEB 13 2016

NOTE:  "FAIR" INDICATES FEW OR NO CLOUDS BELOW 12,000 FEET
WITH NO SIGNIFICANT WEATHER AND/OR OBSTRUCTIONS TO VISIBILITY.

WYZ001-131000-
YELLOWSTONE NATIONAL PARK

CITY           SKY/WX    TMP DP  RH WIND       PRES   REMARKS
LK YELLOWSTONE   N/A     28  20  71 CALM      30.19F
W YELLOWSTONE  NOT AVBL

$$
WYZ002>013-054>058-071-098>099-131000-
NORTHERN WYOMING

CITY           SKY/WX    TMP DP  RH WIND       PRES   REMARKS
JACKSON        FAIR      27  21  80 CALM      30.18F
CODY           FAIR      52  21  30 NW10      30.02F
GREYBULL       FAIR      31  27  85 CALM      30.04F
WORLAND        FAIR      31  28  89 S8        30.04F WCI  23
SHERIDAN       FAIR      27  24  89 CALM      29.98F
BUFFALO        FAIR      41  25  53 SW10      30.01F
GILLETTE       FAIR      30  27  88 S10       30.02F WCI  21
HULETT         FAIR      34  28  80 W7        30.05F WCI  28
NEWCASTLE      CLOUDY    30  28  93 SE8       30.13F WCI  23

$$
WYZ014>020-022>026-101>103-131000-
CENTRAL WYOMING

CITY           SKY/WX    TMP DP  RH WIND       PRES   REMARKS
BIG PINEY      FAIR      20  16  84 E3        30.21F
PINEDALE         N/A     19  18  93 NW6       30.22F WCI  11
DUBOIS         FAIR      32  18  55 NW18      30.13F WCI  20
LANDER         FAIR      34  22  61 E5        30.08F WCI  30
RIVERTON       FAIR      33  26  75 SW7       30.09F WCI  27
CASPER         FAIR      39  23  52 SW14      30.09F WCI  31
DOUGLAS        FOG       29  29 100 CALM      30.11F VSB 1/2

$$
WYZ021-027>030-104>119-131000-
SOUTHERN WYOMING

CITY           SKY/WX    TMP DP  RH WIND       PRES   REMARKS
EVANSTON       FAIR      34  14  43 W6        30.24S WCI  29
FORT BRIDGER   SUNNY     36  16  44 W10       30.26S WCI  28
ROCK SPRINGS   FAIR      34  21  59 W8        30.21F WCI  27
DIXON          FAIR      15  10  79 CALM      30.28S
RAWLINS        FAIR      37  21  52 SW8       30.19F WCI  31
SARATOGA       FAIR      37  25  60 SW13      30.22S WCI  29
LARAMIE        FAIR      39  20  46 SW14      30.17F WCI  31
CHEYENNE       FAIR      32  27  81 SW5       30.11F WCI  27
TORRINGTON     FAIR      30  28  92 E9        30.13F WCI  22
PINE BLUFFS    FOG       30  30 100 S9        30.16F VSB 1/2 WCI  22

$$




USA.gov is the U.S. government's official web portal to all federal, state and local government web resources and services.